ID,SITE,MS,SCHEDULE_DATE,SETUP,BALLOON_NUMBER,VERSION
98336,"Beltsville","BEL-RS-01","2018-03-08T18:53:00.000Z","RESEARCH","1",2
97442,"Beltsville","BEL-RS-01","2018-04-18T07:28:00.000Z","RESEARCH","1",2
98337,"Beltsville","BEL-RS-01","2018-05-24T18:09:00.000Z","RESEARCH","1",2
97432,"Beltsville","BEL-RS-01","2018-08-24T18:33:00.000Z","RESEARCH","1",1
97443,"Beltsville","BEL-RS-01","2018-10-25T07:22:00.000Z","RESEARCH","1",2
98338,"Beltsville","BEL-RS-01","2018-11-29T18:32:00.000Z","RESEARCH","1",2
98339,"Beltsville","BEL-RS-01","2018-12-06T18:50:00.000Z","RESEARCH","1",2
97433,"Beltsville","BEL-RS-01","2019-01-26T07:53:00.000Z","RESEARCH","1",1
102595,"Beltsville","BEL-RS-01","2019-03-07T18:40:00.000Z","RESEARCH","1",1
107706,"Beltsville","BEL-RS-01","2019-07-28T07:40:00.000Z","RESEARCH","1",1
107707,"Beltsville","BEL-RS-01","2019-08-24T18:09:00.000Z","RESEARCH","1",1
115966,"Beltsville","BEL-RS-01","2019-10-18T20:04:00.000Z","RESEARCH","1",1
116437,"Beltsville","BEL-RS-01","2019-11-23T07:57:00.000Z","RESEARCH","1",1
116438,"Beltsville","BEL-RS-01","2019-12-12T18:19:00.000Z","RESEARCH","1",1
117552,"Beltsville","BEL-RS-01","2020-01-23T06:46:00.000Z","RESEARCH","1",1
119400,"Beltsville","BEL-RS-01","2020-03-05T17:30:00.000Z","RESEARCH","1",1
121819,"Beltsville","BEL-RS-01","2020-05-12T06:40:00.000Z","RESEARCH","1",1
129799,"Beltsville","BEL-RS-01","2020-07-15T06:40:00.000Z","RESEARCH","1",1
130549,"Beltsville","BEL-RS-01","2020-08-18T18:38:00.000Z","RESEARCH","1",1
131382,"Beltsville","BEL-RS-01","2020-09-27T07:15:00.000Z","RESEARCH","1",1
131993,"Beltsville","BEL-RS-01","2020-10-24T18:25:00.000Z","RESEARCH","1",1
133032,"Beltsville","BEL-RS-01","2020-11-14T07:15:00.000Z","RESEARCH","1",1
138276,"Beltsville","BEL-RS-01","2021-02-26T17:56:00.000Z","RESEARCH","1",1
139279,"Beltsville","BEL-RS-01","2021-03-30T06:25:00.000Z","RESEARCH","1",1
140718,"Beltsville","BEL-RS-01","2021-04-24T06:39:00.000Z","RESEARCH","1",1
141420,"Beltsville","BEL-RS-01","2021-05-20T06:40:00.000Z","RESEARCH","1",2
142726,"Beltsville","BEL-RS-01","2021-06-23T17:50:00.000Z","RESEARCH","1",1
144042,"Beltsville","BEL-RS-01","2021-07-27T07:09:00.000Z","RESEARCH","1",1
144946,"Beltsville","BEL-RS-01","2021-08-25T06:25:00.000Z","RESEARCH","1",1
147778,"Beltsville","BEL-RS-01","2021-09-25T06:40:00.000Z","RESEARCH","1",1
147779,"Beltsville","BEL-RS-01","2021-10-14T17:20:00.000Z","RESEARCH","1",1
149474,"Beltsville","BEL-RS-01","2021-11-24T06:40:00.000Z","RESEARCH","1",1
155774,"Beltsville","BEL-RS-01","2021-12-14T18:10:00.000Z","RESEARCH","1",1
155775,"Beltsville","BEL-RS-01","2022-01-27T06:32:00.000Z","RESEARCH","1",1
154570,"Beltsville","BEL-RS-01","2022-02-20T17:07:00.000Z","RESEARCH","1",1
154571,"Beltsville","BEL-RS-01","2022-03-29T07:21:00.000Z","RESEARCH","1",1
154572,"Beltsville","BEL-RS-01","2022-04-24T17:32:00.000Z","RESEARCH","1",1
156783,"Beltsville","BEL-RS-01","2022-05-29T06:34:00.000Z","RESEARCH","1",1
156784,"Beltsville","BEL-RS-01","2022-06-29T18:27:00.000Z","RESEARCH","1",1
162309,"Beltsville","BEL-RS-01","2022-07-28T06:20:00.000Z","RESEARCH","1",1
162310,"Beltsville","BEL-RS-01","2022-08-25T18:10:00.000Z","RESEARCH","1",1
162311,"Beltsville","BEL-RS-01","2022-09-24T06:20:00.000Z","RESEARCH","1",1
162312,"Beltsville","BEL-RS-01","2022-10-29T18:43:00.000Z","RESEARCH","1",1
163335,"Beltsville","BEL-RS-01","2022-11-24T07:14:00.000Z","RESEARCH","1",1
163841,"Beltsville","BEL-RS-01","2022-12-14T06:10:00.000Z","RESEARCH","1",1
167719,"Beltsville","BEL-RS-01","2023-01-27T18:19:00.000Z","RESEARCH","1",1
167720,"Beltsville","BEL-RS-01","2023-03-06T07:11:00.000Z","RESEARCH","1",1
168700,"Beltsville","BEL-RS-01","2023-03-21T17:59:00.000Z","RESEARCH","1",1
171740,"Beltsville","BEL-RS-01","2023-04-13T07:10:00.000Z","RESEARCH","1",1
172450,"Beltsville","BEL-RS-01","2023-05-18T17:31:00.000Z","RESEARCH","1",1
172451,"Beltsville","BEL-RS-01","2023-06-02T06:16:00.000Z","RESEARCH","1",1
173968,"Beltsville","BEL-RS-01","2023-07-05T06:34:00.000Z","RESEARCH","1",1
176942,"Beltsville","BEL-RS-01","2023-08-16T18:15:00.000Z","RESEARCH","1",1
177161,"Beltsville","BEL-RS-01","2023-09-04T07:14:00.000Z","RESEARCH","1",1
178825,"Beltsville","BEL-RS-01","2023-10-24T18:58:00.000Z","RESEARCH","1",1
181439,"Beltsville","BEL-RS-01","2023-11-15T06:20:00.000Z","RESEARCH","1",1
181483,"Beltsville","BEL-RS-01","2023-12-15T19:20:00.000Z","RESEARCH","1",1
184771,"Beltsville","BEL-RS-01","2024-02-04T07:03:00.000Z","RESEARCH","1",1
188223,"Beltsville","BEL-RS-01","2024-03-13T17:56:00.000Z","RESEARCH","1",1
6845,"Boulder","BOU-RS-01","2011-09-19T17:04:00.000Z","RESEARCH","1",2
6846,"Boulder","BOU-RS-01","2011-10-19T16:37:00.000Z","RESEARCH","1",2
6847,"Boulder","BOU-RS-01","2011-11-08T17:29:00.000Z","RESEARCH","1",2
6848,"Boulder","BOU-RS-01","2012-01-10T15:50:00.000Z","RESEARCH","1",2
6842,"Boulder","BOU-RS-01","2012-02-24T17:31:00.000Z","RESEARCH","1",1
8723,"Boulder","BOU-RS-01","2012-04-30T16:41:00.000Z","RESEARCH","1",1
9098,"Boulder","BOU-RS-01","2012-05-30T16:32:00.000Z","RESEARCH","1",1
15542,"Boulder","BOU-RS-01","2012-07-31T16:44:00.000Z","RESEARCH","1",1
18101,"Boulder","BOU-RS-01","2012-08-30T17:20:00.000Z","RESEARCH","1",1
19525,"Boulder","BOU-RS-01","2012-10-03T17:04:00.000Z","RESEARCH","1",1
20034,"Boulder","BOU-RS-01","2012-11-06T17:26:00.000Z","RESEARCH","1",1
21336,"Boulder","BOU-RS-01","2012-12-12T21:10:00.000Z","RESEARCH","1",1
26263,"Boulder","BOU-RS-01","2013-01-17T18:11:00.000Z","RESEARCH","1",2
26262,"Boulder","BOU-RS-01","2013-02-25T20:53:00.000Z","RESEARCH","1",1
27832,"Boulder","BOU-RS-01","2013-05-03T17:03:00.000Z","RESEARCH","1",1
28075,"Boulder","BOU-RS-01","2013-06-06T16:03:00.000Z","RESEARCH","1",1
28976,"Boulder","BOU-RS-01","2013-07-09T16:23:00.000Z","RESEARCH","1",1
29631,"Boulder","BOU-RS-01","2013-08-16T16:40:00.000Z","RESEARCH","1",1
33503,"Boulder","BOU-RS-01","2013-09-24T15:59:00.000Z","RESEARCH","1",1
34827,"Boulder","BOU-RS-01","2013-11-07T16:49:00.000Z","RESEARCH","1",1
34830,"Boulder","BOU-RS-01","2013-12-12T18:01:00.000Z","RESEARCH","1",1
36211,"Boulder","BOU-RS-01","2014-02-26T19:32:00.000Z","RESEARCH","1",1
40103,"Boulder","BOU-RS-01","2014-03-25T17:19:00.000Z","FPH-OZONE","1",3
40111,"Boulder","BOU-RS-01","2014-05-28T17:00:00.000Z","FPH-OZONE","1",3
40148,"Boulder","BOU-RS-01","2014-06-20T17:00:00.000Z","FPH-OZONE","1",1
40241,"Boulder","BOU-RS-01","2014-07-22T17:00:00.000Z","RESEARCH","1",3
41628,"Boulder","BOU-RS-01","2014-08-29T16:00:00.000Z","FPH-OZONE","1",1
42029,"Boulder","BOU-RS-01","2014-10-02T17:00:00.000Z","FPH-OZONE","1",1
42368,"Boulder","BOU-RS-01","2014-10-30T16:00:00.000Z","FPH-OZONE","1",1
44334,"Boulder","BOU-RS-01","2014-12-05T17:00:00.000Z","FPH-OZONE","1",1
47227,"Boulder","BOU-RS-01","2015-01-08T18:00:00.000Z","FPH-OZONE","1",1
47788,"Boulder","BOU-RS-01","2015-02-09T17:00:00.000Z","FPH-OZONE","1",1
50043,"Boulder","BOU-RS-01","2015-04-13T20:00:00.000Z","FPH","1",1
50537,"Boulder","BOU-RS-01","2015-05-26T17:00:00.000Z","FPH-OZONE","1",1
51990,"Boulder","BOU-RS-01","2015-06-29T16:00:00.000Z","FPH-OZONE","1",1
52756,"Boulder","BOU-RS-01","2015-08-05T17:00:00.000Z","FPH-OZONE","1",1
53001,"Boulder","BOU-RS-01","2015-08-25T17:00:00.000Z","RESEARCH","1",1
54764,"Boulder","BOU-RS-01","2015-10-08T17:00:00.000Z","FPH-OZONE","1",1
56340,"Boulder","BOU-RS-01","2015-11-09T18:00:00.000Z","FPH-OZONE","1",1
57446,"Boulder","BOU-RS-01","2016-01-12T18:00:00.000Z","FPH-OZONE","1",1
58389,"Boulder","BOU-RS-01","2016-02-26T18:00:00.000Z","FPH-OZONE","1",1
59766,"Boulder","BOU-RS-01","2016-06-06T17:00:00.000Z","FPH-OZONE","1",1
60667,"Boulder","BOU-RS-01","2016-07-06T17:00:00.000Z","FPH-OZONE","1",1
61542,"Boulder","BOU-RS-01","2016-08-10T17:00:00.000Z","FPH-OZONE","1",1
65238,"Boulder","BOU-RS-01","2016-12-27T19:00:00.000Z","FPH-OZONE","1",2
65237,"Boulder","BOU-RS-01","2017-01-26T18:00:00.000Z","FPH-OZONE","1",1
68216,"Boulder","BOU-RS-01","2017-02-22T18:00:00.000Z","FPH-OZONE","1",1
70155,"Boulder","BOU-RS-01","2017-07-28T17:00:00.000Z","FPH-OZONE","1",1
72363,"Boulder","BOU-RS-01","2017-08-29T17:00:00.000Z","FPH-OZONE","1",1
72365,"Boulder","BOU-RS-01","2017-10-04T18:00:00.000Z","FPH-OZONE","1",1
81389,"Boulder","BOU-RS-01","2017-10-12T19:00:00.000Z","FPH-OZONE","1",1
81460,"Boulder","BOU-RS-01","2017-11-14T17:00:00.000Z","FPH-OZONE","1",1
81463,"Boulder","BOU-RS-01","2017-12-11T19:00:00.000Z","FPH-OZONE","1",1
84739,"Boulder","BOU-RS-01","2018-01-04T17:00:00.000Z","FPH-OZONE","1",1
84743,"Boulder","BOU-RS-01","2018-02-07T19:00:00.000Z","FPH-OZONE","1",1
85680,"Boulder","BOU-RS-01","2018-04-04T17:00:00.000Z","FPH-OZONE","1",1
86698,"Boulder","BOU-RS-01","2018-04-18T17:00:00.000Z","FPH-OZONE","1",1
86699,"Boulder","BOU-RS-01","2018-05-08T18:00:00.000Z","FPH-OZONE","1",1
86700,"Boulder","BOU-RS-01","2018-05-31T18:00:00.000Z","FPH-OZONE","1",1
89029,"Boulder","BOU-RS-01","2018-06-08T19:00:00.000Z","FPH-OZONE","1",1
89035,"Boulder","BOU-RS-01","2018-07-18T17:00:00.000Z","FPH-OZONE","1",1
89986,"Boulder","BOU-RS-01","2018-08-08T20:00:00.000Z","FPH-OZONE","1",1
89990,"Boulder","BOU-RS-01","2018-08-29T17:00:00.000Z","FPH-OZONE","1",1
89993,"Boulder","BOU-RS-01","2018-09-18T17:00:00.000Z","FPH-OZONE","1",1
90872,"Boulder","BOU-RS-01","2018-10-19T18:00:00.000Z","FPH-OZONE","1",1
92891,"Boulder","BOU-RS-01","2018-12-14T18:00:00.000Z","FPH-OZONE","1",1
96352,"Boulder","BOU-RS-01","2019-01-08T18:00:00.000Z","FPH-OZONE","1",1
98145,"Boulder","BOU-RS-01","2019-02-07T18:00:00.000Z","FPH-OZONE","1",1
98154,"Boulder","BOU-RS-01","2019-03-15T17:00:00.000Z","FPH-OZONE","1",1
98155,"Boulder","BOU-RS-01","2019-03-20T17:00:00.000Z","FPH","1",1
100013,"Boulder","BOU-RS-01","2019-04-08T16:00:00.000Z","FPH-OZONE","1",1
103579,"Boulder","BOU-RS-01","2019-05-14T16:00:00.000Z","FPH-OZONE","1",1
103582,"Boulder","BOU-RS-01","2019-06-07T16:00:00.000Z","FPH-OZONE","1",1
106391,"Boulder","BOU-RS-01","2019-06-28T17:00:00.000Z","FPH-OZONE","1",1
106394,"Boulder","BOU-RS-01","2019-07-19T17:00:00.000Z","FPH-OZONE","1",1
107289,"Boulder","BOU-RS-01","2019-08-07T16:00:00.000Z","FPH-OZONE","1",1
107292,"Boulder","BOU-RS-01","2019-08-27T16:00:00.000Z","FPH-OZONE","1",1
108874,"Boulder","BOU-RS-01","2019-09-13T17:00:00.000Z","FPH-OZONE","1",1
113867,"Boulder","BOU-RS-01","2019-10-11T18:00:00.000Z","FPH-OZONE","1",1
116433,"Boulder","BOU-RS-01","2019-12-31T18:00:00.000Z","FPH-OZONE","1",1
117799,"Boulder","BOU-RS-01","2020-01-24T17:00:00.000Z","FPH-OZONE","1",1
119395,"Boulder","BOU-RS-01","2020-02-21T18:00:00.000Z","FPH-OZONE","1",1
119396,"Boulder","BOU-RS-01","2020-02-26T17:00:00.000Z","FPH-OZONE","1",1
122930,"Boulder","BOU-RS-01","2020-06-03T16:00:00.000Z","FPH-OZONE","1",1
126185,"Boulder","BOU-RS-01","2020-06-25T17:00:00.000Z","FPH-OZONE","1",1
126186,"Boulder","BOU-RS-01","2020-07-09T16:00:00.000Z","FPH-OZONE","1",1
126187,"Boulder","BOU-RS-01","2020-07-22T16:00:00.000Z","FPH-OZONE","1",1
127099,"Boulder","BOU-RS-01","2020-08-04T16:00:00.000Z","FPH-OZONE","1",1
127100,"Boulder","BOU-RS-01","2020-08-20T16:00:00.000Z","FPH-OZONE","1",1
130948,"Boulder","BOU-RS-01","2020-09-02T16:00:00.000Z","FPH-OZONE","1",1
130978,"Boulder","BOU-RS-01","2020-09-17T16:00:00.000Z","FPH-OZONE","1",1
130979,"Boulder","BOU-RS-01","2020-09-30T16:00:00.000Z","FPH-OZONE","1",1
131990,"Boulder","BOU-RS-01","2020-10-16T16:00:00.000Z","FPH-OZONE","1",1
134346,"Boulder","BOU-RS-01","2020-10-30T16:00:00.000Z","FPH-OZONE","1",1
133432,"Boulder","BOU-RS-01","2020-10-30T17:00:00.000Z","FPH-OZONE","1",1
133433,"Boulder","BOU-RS-01","2020-11-06T17:00:00.000Z","FPH-OZONE","1",1
134350,"Boulder","BOU-RS-01","2020-12-01T17:00:00.000Z","FPH-OZONE","1",1
134351,"Boulder","BOU-RS-01","2020-12-21T17:00:00.000Z","FPH-OZONE","1",1
135525,"Boulder","BOU-RS-01","2021-01-04T17:00:00.000Z","FPH-OZONE","1",1
138339,"Boulder","BOU-RS-01","2021-01-22T17:00:00.000Z","FPH-OZONE","1",1
138570,"Boulder","BOU-RS-01","2021-03-01T17:00:00.000Z","FPH-OZONE","1",1
139781,"Boulder","BOU-RS-01","2021-03-18T16:00:00.000Z","FPH-OZONE","1",1
139782,"Boulder","BOU-RS-01","2021-04-02T16:00:00.000Z","FPH-OZONE","1",1
139783,"Boulder","BOU-RS-01","2021-04-05T16:00:00.000Z","FPH-OZONE","1",1
143348,"Boulder","BOU-RS-01","2021-05-14T16:00:00.000Z","FPH-OZONE","1",1
142263,"Boulder","BOU-RS-01","2021-06-03T17:00:00.000Z","FPH-OZONE","1",1
143349,"Boulder","BOU-RS-01","2021-06-15T17:00:00.000Z","FPH-OZONE","1",1
143109,"Boulder","BOU-RS-01","2021-06-24T16:00:00.000Z","FPH-OZONE","1",1
144616,"Boulder","BOU-RS-01","2021-07-19T16:00:00.000Z","FPH-OZONE","1",1
144617,"Boulder","BOU-RS-01","2021-08-17T16:00:00.000Z","FPH-OZONE","1",1
146824,"Boulder","BOU-RS-01","2021-09-01T16:00:00.000Z","FPH-OZONE","1",1
146825,"Boulder","BOU-RS-01","2021-09-13T16:00:00.000Z","FPH-OZONE","1",1
147687,"Boulder","BOU-RS-01","2021-10-05T16:00:00.000Z","FPH-OZONE","1",1
147688,"Boulder","BOU-RS-01","2021-10-22T16:00:00.000Z","FPH-OZONE","1",1
149411,"Boulder","BOU-RS-01","2021-11-04T16:00:00.000Z","FPH-OZONE","1",1
149412,"Boulder","BOU-RS-01","2021-11-18T17:00:00.000Z","FPH-OZONE","1",1
149413,"Boulder","BOU-RS-01","2021-12-01T17:00:00.000Z","FPH-OZONE","1",1
151083,"Boulder","BOU-RS-01","2021-12-20T17:00:00.000Z","FPH-OZONE","1",1
151084,"Boulder","BOU-RS-01","2022-01-11T17:00:00.000Z","FPH-OZONE","1",1
152289,"Boulder","BOU-RS-01","2022-02-03T17:00:00.000Z","FPH-OZONE","1",1
153963,"Boulder","BOU-RS-01","2022-02-24T17:00:00.000Z","FPH-OZONE","1",1
153964,"Boulder","BOU-RS-01","2022-03-11T17:00:00.000Z","FPH-OZONE","1",1
155652,"Boulder","BOU-RS-01","2022-04-14T15:00:00.000Z","FPH-OZONE","1",1
155653,"Boulder","BOU-RS-01","2022-05-26T17:00:00.000Z","FPH-OZONE","1",1
156606,"Boulder","BOU-RS-01","2022-06-24T16:00:00.000Z","FPH-OZONE","1",1
157213,"Boulder","BOU-RS-01","2022-07-13T16:00:00.000Z","FPH-OZONE","1",1
158709,"Boulder","BOU-RS-01","2022-08-17T17:00:00.000Z","FPH-OZONE","1",1
160833,"Boulder","BOU-RS-01","2022-09-14T16:00:00.000Z","FPH-OZONE","1",1
160834,"Boulder","BOU-RS-01","2022-09-28T16:00:00.000Z","FPH-OZONE","1",1
161206,"Boulder","BOU-RS-01","2022-10-21T16:00:00.000Z","FPH-OZONE","1",1
163430,"Boulder","BOU-RS-01","2022-11-21T17:00:00.000Z","FPH-OZONE","1",1
164708,"Boulder","BOU-RS-01","2022-12-15T17:00:00.000Z","FPH-OZONE","1",1
165875,"Boulder","BOU-RS-01","2023-01-10T17:00:00.000Z","FPH-OZONE","1",1
166581,"Boulder","BOU-RS-01","2023-02-01T17:00:00.000Z","FPH-OZONE","1",1
169046,"Boulder","BOU-RS-01","2023-03-03T17:00:00.000Z","FPH-OZONE","1",1
171957,"Boulder","BOU-RS-01","2023-03-28T16:00:00.000Z","FPH-OZONE","1",1
171803,"Boulder","BOU-RS-01","2023-04-11T19:00:00.000Z","FPH-OZONE","1",1
172050,"Boulder","BOU-RS-01","2023-04-27T16:00:00.000Z","FPH-OZONE","1",1
171958,"Boulder","BOU-RS-01","2023-05-08T16:00:00.000Z","FPH-OZONE","1",1
174928,"Boulder","BOU-RS-01","2023-05-31T16:00:00.000Z","FPH-OZONE","1",2
174926,"Boulder","BOU-RS-01","2023-06-21T16:00:00.000Z","FPH-OZONE","1",1
174927,"Boulder","BOU-RS-01","2023-07-13T15:00:00.000Z","FPH-OZONE","1",1
174933,"Boulder","BOU-RS-01","2023-08-01T15:00:00.000Z","FPH-OZONE","1",1
180218,"Boulder","BOU-RS-01","2023-08-23T16:00:00.000Z","FPH-OZONE","1",1
180219,"Boulder","BOU-RS-01","2023-09-12T16:00:00.000Z","FPH-OZONE","1",1
180220,"Boulder","BOU-RS-01","2023-09-28T16:00:00.000Z","FPH-OZONE","1",1
180221,"Boulder","BOU-RS-01","2023-10-13T16:00:00.000Z","FPH-OZONE","1",1
180222,"Boulder","BOU-RS-01","2023-10-20T16:00:00.000Z","FPH-OZONE","1",1
180223,"Boulder","BOU-RS-01","2023-11-17T17:00:00.000Z","FPH-OZONE","1",1
189661,"Boulder","BOU-RS-01","2023-12-21T17:00:00.000Z","FPH-OZONE","1",1
189662,"Boulder","BOU-RS-01","2024-01-05T18:00:00.000Z","FPH-OZONE","1",1
189663,"Boulder","BOU-RS-01","2024-01-23T17:00:00.000Z","FPH-OZONE","1",1
189664,"Boulder","BOU-RS-01","2024-01-29T17:00:00.000Z","FPH-OZONE","1",1
189737,"Boulder","BOU-RS-01","2024-02-21T16:00:00.000Z","FPH-OZONE","1",1
189742,"Boulder","BOU-RS-01","2024-03-12T15:00:00.000Z","FPH-OZONE","1",1
136163,"HongKong","HKO-RS-02","2020-10-09T06:00:00.000Z","MOISTURE","1",2
136160,"HongKong","HKO-RS-02","2020-11-12T10:00:00.000Z","MOISTURE","1",1
136161,"HongKong","HKO-RS-02","2020-12-17T10:00:00.000Z","MOISTURE","1",1
136162,"HongKong","HKO-RS-02","2021-01-14T06:00:00.000Z","MOISTURE","1",1
138676,"HongKong","HKO-RS-02","2021-02-25T10:00:00.000Z","MOISTURE","1",1
139672,"HongKong","HKO-RS-02","2021-03-18T10:00:00.000Z","MOISTURE","1",1
143609,"HongKong","HKO-RS-02","2021-04-22T10:00:00.000Z","MOISTURE","1",1
143610,"HongKong","HKO-RS-02","2021-05-13T10:00:00.000Z","MOISTURE","1",1
143611,"HongKong","HKO-RS-02","2021-06-17T10:00:00.000Z","MOISTURE","1",1
146658,"HongKong","HKO-RS-02","2021-08-12T11:00:00.000Z","MOISTURE","1",1
146659,"HongKong","HKO-RS-02","2021-09-16T10:00:00.000Z","MOISTURE","1",1
151003,"HongKong","HKO-RS-02","2021-10-28T09:00:00.000Z","MOISTURE","1",1
151004,"HongKong","HKO-RS-02","2021-12-09T09:00:00.000Z","MOISTURE","1",1
154262,"HongKong","HKO-RS-02","2022-01-20T10:00:00.000Z","MOISTURE","1",1
154263,"HongKong","HKO-RS-02","2022-03-17T10:00:00.000Z","MOISTURE","1",1
154264,"HongKong","HKO-RS-02","2022-04-07T10:00:00.000Z","MOISTURE","1",1
156432,"HongKong","HKO-RS-02","2022-05-19T11:00:00.000Z","MOISTURE","1",1
158438,"HongKong","HKO-RS-02","2022-07-14T11:00:00.000Z","MOISTURE","1",1
158439,"HongKong","HKO-RS-02","2022-08-18T11:00:00.000Z","MOISTURE","1",1
160774,"HongKong","HKO-RS-02","2022-09-15T11:00:00.000Z","MOISTURE","1",1
164440,"HongKong","HKO-RS-02","2022-11-28T11:00:00.000Z","MOISTURE","1",1
167570,"HongKong","HKO-RS-02","2022-12-29T10:00:00.000Z","MOISTURE","1",1
167571,"HongKong","HKO-RS-02","2023-01-17T10:00:00.000Z","MOISTURE","1",1
167572,"HongKong","HKO-RS-02","2023-02-09T11:00:00.000Z","MOISTURE","1",1
169306,"HongKong","HKO-RS-02","2023-03-16T11:00:00.000Z","MOISTURE","1",1
172274,"HongKong","HKO-RS-02","2023-05-11T11:00:00.000Z","MOISTURE","1",1
177093,"HongKong","HKO-RS-02","2023-06-20T11:00:00.000Z","MOISTURE","1",1
177094,"HongKong","HKO-RS-02","2023-08-24T11:00:00.000Z","MOISTURE","1",1
177095,"HongKong","HKO-RS-02","2023-09-19T11:00:00.000Z","MOISTURE","1",1
182524,"HongKong","HKO-RS-02","2023-10-24T10:00:00.000Z","MOISTURE","1",1
182525,"HongKong","HKO-RS-02","2023-11-16T10:00:00.000Z","MOISTURE","1",1
182526,"HongKong","HKO-RS-02","2023-12-07T10:00:00.000Z","MOISTURE","1",1
44820,"LaReunion","REU-RS-01","2014-11-18T19:00:00.000Z","CFH","1",1
50189,"LaReunion","REU-RS-01","2015-05-12T18:00:00.000Z","MORGANE","1",1
50247,"LaReunion","REU-RS-01","2015-05-15T21:00:00.000Z","MORGANE","1",1
50288,"LaReunion","REU-RS-01","2015-05-18T18:00:00.000Z","MORGANE","1",1
50316,"LaReunion","REU-RS-01","2015-05-19T18:00:00.000Z","MORGANE","1",1
50346,"LaReunion","REU-RS-01","2015-05-21T18:00:00.000Z","MORGANE","1",1
50363,"LaReunion","REU-RS-01","2015-05-22T12:00:00.000Z","MORGANE","1",1
50364,"LaReunion","REU-RS-01","2015-05-22T18:00:00.000Z","MORGANE","1",1
94305,"LaReunion","REU-RS-01","2019-01-11T17:54:00.000Z","CONCIRTO","1",1
95816,"LaReunion","REU-RS-01","2019-01-24T17:04:00.000Z","CONCIRTO","1",1
96013,"LaReunion","REU-RS-01","2019-01-31T17:21:00.000Z","CONCIRTO","1",1
97411,"LaReunion","REU-RS-01","2019-02-08T18:52:00.000Z","CONCIRTO","1",1
102537,"LaReunion","REU-RS-01","2019-02-28T16:08:00.000Z","CONCIRTO","1",1
102539,"LaReunion","REU-RS-01","2019-03-01T17:00:00.000Z","CONCIRTO","1",1
60416,"Lamont","SGP-RS-01","2014-09-11T13:00:00.000Z","CFH","1",1
60492,"Lamont","SGP-RS-01","2014-11-26T14:32:00.000Z","CFH","1",1
60493,"Lamont","SGP-RS-01","2015-03-26T13:00:00.000Z","CFH","1",1
60494,"Lamont","SGP-RS-01","2015-04-29T13:00:00.000Z","CFH","1",1
60505,"Lamont","SGP-RS-01","2015-05-11T14:00:00.000Z","CFH","1",1
60506,"Lamont","SGP-RS-01","2015-07-15T14:00:00.000Z","CFH","1",1
62298,"Lamont","SGP-RS-01","2016-09-28T13:00:00.000Z","CFH","1",1
36731,"Lauder","LAU-RS-01","2013-03-06T23:54:00.000Z","FPH-OZONE","1",1
36885,"Lauder","LAU-RS-01","2013-03-28T01:55:00.000Z","FPH-OZONE","1",1
36886,"Lauder","LAU-RS-01","2013-04-30T00:31:00.000Z","FPH-OZONE","1",1
40377,"Lauder","LAU-RS-01","2013-05-24T00:53:00.000Z","FPH-OZONE","1",1
40425,"Lauder","LAU-RS-01","2013-07-30T02:05:00.000Z","FPH-OZONE","1",1
40443,"Lauder","LAU-RS-01","2013-08-29T23:08:00.000Z","FPH-OZONE","1",1
40444,"Lauder","LAU-RS-01","2013-10-28T21:11:00.000Z","FPH-OZONE","1",1
40447,"Lauder","LAU-RS-01","2013-11-27T21:36:00.000Z","FPH-OZONE","1",1
40449,"Lauder","LAU-RS-01","2013-12-18T20:44:00.000Z","FPH-OZONE","1",1
40450,"Lauder","LAU-RS-01","2014-01-23T21:31:00.000Z","FPH-OZONE","1",1
40451,"Lauder","LAU-RS-01","2014-02-19T21:14:00.000Z","FPH-OZONE","1",1
40597,"Lauder","LAU-RS-01","2014-03-26T21:09:00.000Z","FPH-OZONE","1",1
40598,"Lauder","LAU-RS-01","2014-04-29T21:42:00.000Z","FPH-OZONE","1",1
40599,"Lauder","LAU-RS-01","2014-05-26T23:55:00.000Z","FPH-OZONE","1",1
40600,"Lauder","LAU-RS-01","2014-06-19T21:44:00.000Z","FPH-OZONE","1",1
41863,"Lauder","LAU-RS-01","2014-08-05T22:34:00.000Z","FPH-OZONE","1",2
47931,"Lauder","LAU-RS-01","2014-09-25T21:38:00.000Z","FPH-OZONE","1",1
47932,"Lauder","LAU-RS-01","2014-10-29T22:05:00.000Z","FPH-OZONE","1",1
48165,"Lauder","LAU-RS-01","2014-12-02T00:18:00.000Z","FPH-OZONE","1",1
48176,"Lauder","LAU-RS-01","2015-01-21T23:01:00.000Z","FPH-OZONE","1",1
48307,"Lauder","LAU-RS-01","2015-03-31T23:25:00.000Z","FPH-OZONE","1",1
57247,"Lauder","LAU-RS-01","2015-04-30T22:35:00.000Z","FPH-OZONE","1",2
57083,"Lauder","LAU-RS-01","2015-06-04T01:04:00.000Z","FPH-OZONE","1",1
57084,"Lauder","LAU-RS-01","2015-07-06T22:48:00.000Z","FPH-OZONE","1",1
57153,"Lauder","LAU-RS-01","2015-08-18T22:19:00.000Z","FPH-OZONE","1",1
57207,"Lauder","LAU-RS-01","2015-09-02T23:24:00.000Z","FPH-OZONE","1",1
57209,"Lauder","LAU-RS-01","2015-10-27T22:00:00.000Z","RESEARCH","1",1
57210,"Lauder","LAU-RS-01","2015-11-25T20:20:00.000Z","FPH-OZONE","1",1
57248,"Lauder","LAU-RS-01","2015-12-22T22:05:00.000Z","RESEARCH","1",2
62429,"Lauder","LAU-RS-01","2016-01-31T21:23:00.000Z","RESEARCH","1",1
62430,"Lauder","LAU-RS-01","2016-03-01T21:05:00.000Z","RESEARCH","1",1
62428,"Lauder","LAU-RS-01","2016-05-04T23:00:00.000Z","RESEARCH","1",1
62431,"Lauder","LAU-RS-01","2016-06-01T22:25:00.000Z","RESEARCH","1",1
62432,"Lauder","LAU-RS-01","2016-06-29T22:02:00.000Z","RESEARCH","1",1
62434,"Lauder","LAU-RS-01","2016-08-02T00:11:00.000Z","RESEARCH","1",1
62445,"Lauder","LAU-RS-01","2016-09-08T22:01:00.000Z","RESEARCH","1",1
69404,"Lauder","LAU-RS-01","2016-10-20T22:30:00.000Z","RESEARCH","1",1
69406,"Lauder","LAU-RS-01","2016-11-17T20:53:00.000Z","RESEARCH","1",1
69423,"Lauder","LAU-RS-01","2016-12-19T20:51:00.000Z","FPH-OZONE","1",1
69429,"Lauder","LAU-RS-01","2017-01-31T23:14:00.000Z","RESEARCH","1",1
69464,"Lauder","LAU-RS-01","2017-03-15T00:45:00.000Z","RESEARCH","1",1
69465,"Lauder","LAU-RS-01","2017-05-01T21:50:00.000Z","RESEARCH","1",1
69424,"Lauder","LAU-RS-01","2017-05-30T23:25:00.000Z","FPH-OZONE","1",1
80566,"Lauder","LAU-RS-01","2017-07-05T22:09:00.000Z","FPH-OZONE","1",1
80567,"Lauder","LAU-RS-01","2017-08-14T22:02:00.000Z","RESEARCH","1",1
80667,"Lauder","LAU-RS-01","2017-09-18T21:56:00.000Z","RESEARCH","1",1
82738,"Lauder","LAU-RS-01","2017-10-18T00:45:00.000Z","RESEARCH","1",1
82743,"Lauder","LAU-RS-01","2017-11-11T08:00:00.000Z","RESEARCH","1",1
82749,"Lauder","LAU-RS-01","2017-12-05T16:32:00.000Z","RESEARCH","1",1
85597,"Lauder","LAU-RS-01","2018-01-15T20:21:00.000Z","RESEARCH","1",1
85598,"Lauder","LAU-RS-01","2018-02-12T20:45:00.000Z","FPH-OZONE","1",1
85599,"Lauder","LAU-RS-01","2018-03-19T21:05:00.000Z","FPH-OZONE","1",1
91485,"Lauder","LAU-RS-01","2018-04-17T21:50:00.000Z","FPH-OZONE","1",1
91486,"Lauder","LAU-RS-01","2018-05-14T22:12:00.000Z","RESEARCH","1",1
91487,"Lauder","LAU-RS-01","2018-06-19T23:34:00.000Z","RESEARCH","1",1
91490,"Lauder","LAU-RS-01","2018-07-16T22:45:00.000Z","FPH-OZONE","1",1
91491,"Lauder","LAU-RS-01","2018-08-09T21:45:00.000Z","FPH-OZONE","1",1
94165,"Lauder","LAU-RS-01","2018-09-27T02:23:00.000Z","FPH-OZONE","1",1
94166,"Lauder","LAU-RS-01","2018-10-31T20:40:00.000Z","RESEARCH","1",1